Satellite: ISS Catalog number: 25544 Epoch time: 11146.82998442 Element set: 423 Inclination: 051.6479 deg RA of node: 270.2731 deg Eccentricity: 0.0003248 Arg of perigee: 327.3115 deg Mean anomaly: 170.5090 deg Mean motion: 15.75536230 rev/day Decay rate: 1.6276e-04 rev/day^2 Epoch rev: 71754 Checksum: 293
Satellite: MAST Catalog number: 31126 Epoch time: 11146.83633957 Element set: 168 Inclination: 097.8940 deg RA of node: 175.2673 deg Eccentricity: 0.0093225 Arg of perigee: 236.7242 deg Mean anomaly: 122.5003 deg Mean motion: 14.53745227 rev/day Decay rate: 4.7e-07 rev/day^2 Epoch rev: 21798 Checksum: 301
/EX